Asheville, NC

12:46 PM EDT on April 23, 2018 (GMT -0400)
Asheville Regional

Weather History for KAVL - December, 2010

Change the Weather History Date:

Friday, December 17, 2010

  Actual Average Record
Temperature  
Mean Temperature 37 °F 39 °F  
Max Temperature 44 °F 49 °F 72 °F (1924)
Min Temperature 30 °F 29 °F 7 °F (1943)
Degree Days  
Heating Degree Days 28    
Month to date heating degree days 597  
Moisture  
Dew Point 31 °F    
Average Humidity 78    
Maximum Humidity 96    
Minimum Humidity 60    
Precipitation  
Precipitation 0.00 in 0.10 in 1.50 in (1872)
Month to date precipitation 0.59  
Year to date precipitation 43.59  
Snow  
Snow 0.00 in 0.00 in 10.10 in (2009)
Month to date snowfall 3.8  
Since 1 July snowfall 3.8  
Snow Depth 0.00 in    
Sea Level Pressure  
Sea Level Pressure 29.98 in    
Wind  
Wind Speed 11 mph (NNW)    
Max Wind Speed 23 mph    
Max Gust Speed 28 mph    
Visibility 10 miles    
Events      
T = Trace of Precipitation, MM = Missing Value Source: NWS Daily Summary

Daily Weather History Graph

Daily Weather History Graph

Search for Another Location

Airport or City:

Astronomy

Dec. 17, 2010 Rise Set
Actual Time 7:33 AM EST 5:19 PM EST
Civil Twilight 7:04 AM EST 5:47 PM EST
Nautical Twilight 6:32 AM EST 6:19 PM EST
Astronomical Twilight 6:01 AM EST 6:50 PM EST
Moon 2:23 PM EST (12/17) 3:53 AM EST (12/17)
Length of Visible Light 10h 42m
Length of Day
9h 46m
Waxing Gibbous, 86% of the Moon is Illuminated
Dec 17
Waxing Gibbous
Dec 21
Full
Dec 27
Last Quarter
Jan 4
New
Jan 12
First Quarter

Hourly Weather History & Observations

Time (EST) Temp. Windchill Dew Point Humidity Pressure Visibility Wind Dir Wind Speed Gust Speed Precip Events Conditions
12:54 AM 37.9 °F 30.9 °F 35.1 °F 89% 29.83 in 10.0 mi NNW 10.4 mph 17.3 mph N/A   Overcast
1:14 AM 37.4 °F 28.9 °F 35.6 °F 93% 29.83 in 10.0 mi NNW 13.8 mph 20.7 mph N/A   Mostly Cloudy
1:29 AM 37.4 °F 28.5 °F 33.8 °F 87% 29.83 in 10.0 mi NNW 15.0 mph 21.9 mph N/A   Mostly Cloudy
1:54 AM 37.0 °F 26.7 °F 34.0 °F 89% 29.85 in 10.0 mi NNW 19.6 mph 27.6 mph N/A   Mostly Cloudy
2:18 AM 37.4 °F 28.2 °F 33.8 °F 87% 29.85 in 10.0 mi NNW 16.1 mph 23.0 mph N/A   Mostly Cloudy
2:54 AM 36.0 °F 27.5 °F 34.0 °F 93% 29.86 in 10.0 mi NNW 12.7 mph 20.7 mph N/A   Mostly Cloudy
3:01 AM 35.6 °F 27.1 °F 33.8 °F 93% 29.86 in 10.0 mi NNW 12.7 mph 19.6 mph N/A   Scattered Clouds
3:14 AM 35.6 °F 29.2 °F 33.8 °F 93% 29.87 in 10.0 mi NNW 8.1 mph - N/A   Mostly Cloudy
3:36 AM 35.6 °F 27.1 °F 33.8 °F 93% 29.88 in 10.0 mi NNW 12.7 mph - N/A   Overcast
3:50 AM 35.6 °F 27.1 °F 33.8 °F 93% 29.89 in 10.0 mi NNW 12.7 mph 19.6 mph N/A   Overcast
3:54 AM 35.6 °F 27.5 °F 33.8 °F 93% 29.89 in 10.0 mi NNW 11.5 mph 18.4 mph N/A   Overcast
4:54 AM 36.0 °F 26.7 °F 33.1 °F 89% 29.91 in 10.0 mi NNW 15.0 mph 19.6 mph N/A   Overcast
5:54 AM 34.0 °F 25.0 °F 32.0 °F 92% 29.94 in 10.0 mi NNW 12.7 mph 20.7 mph N/A   Overcast
6:54 AM 34.0 °F 23.4 °F 30.9 °F 89% - 10.0 mi North 17.3 mph 27.6 mph N/A   Mostly Cloudy
7:09 AM 33.8 °F 23.9 °F 30.2 °F 87% - 10.0 mi North 15.0 mph 25.3 mph N/A   Overcast
7:54 AM 34.0 °F 26.6 °F 30.0 °F 85% - 10.0 mi North 9.2 mph - N/A   Overcast
8:54 AM 35.1 °F 27.4 °F 30.0 °F 82% - 10.0 mi North 10.4 mph - N/A   Overcast
9:54 AM 35.1 °F 27.4 °F 28.9 °F 78% 30.06 in 10.0 mi North 10.4 mph - N/A   Mostly Cloudy
10:02 AM 35.6 °F 27.5 °F 28.4 °F 75% 30.04 in 10.0 mi North 11.5 mph 18.4 mph N/A   Scattered Clouds
10:54 AM 37.9 °F 30.5 °F 30.0 °F 73% 30.07 in 10.0 mi NNW 11.5 mph - N/A   Scattered Clouds
11:54 AM 39.9 °F 33.9 °F 30.0 °F 68% 30.04 in 10.0 mi North 9.2 mph - N/A   Clear
12:54 PM 43.0 °F 39.5 °F 30.0 °F 60% 30.02 in 10.0 mi North 5.8 mph - N/A   Clear
1:54 PM 42.1 °F 37.1 °F 30.0 °F 62% 30.01 in 10.0 mi NNW 8.1 mph - N/A   Clear
2:54 PM 43.0 °F 36.0 °F 30.0 °F 60% 30.02 in 10.0 mi NNW 13.8 mph - N/A   Clear
3:54 PM 41.0 °F 33.9 °F 28.4 °F 61% 30.01 in 10.0 mi NNW 12.7 mph - N/A   Clear
4:54 PM 37.9 °F 28.9 °F 28.9 °F 70% 30.05 in 10.0 mi NNW 16.1 mph - N/A   Clear
5:54 PM 35.1 °F 26.9 °F 28.0 °F 76% 30.06 in 10.0 mi North 11.5 mph - N/A   Clear
6:54 PM 33.1 °F 26.1 °F 27.0 °F 78% 30.09 in 10.0 mi North 8.1 mph - N/A   Clear
7:54 PM 32.0 °F 26.4 °F 27.0 °F 82% 30.10 in 10.0 mi North 5.8 mph - N/A   Clear
8:54 PM 30.9 °F 21.2 °F 27.0 °F 85% 30.12 in 10.0 mi NNW 12.7 mph - N/A   Clear
9:54 PM 30.0 °F 23.2 °F 27.0 °F 88% 30.12 in 10.0 mi NNW 6.9 mph - N/A   Clear
10:54 PM 30.9 °F 23.5 °F 27.0 °F 85% 30.11 in 10.0 mi North 8.1 mph - N/A   Overcast
11:54 PM 30.9 °F 25.2 °F 27.0 °F 85% 30.10 in 10.0 mi NNW 5.8 mph - N/A   Overcast